Timestamp (UTC),Temp / °C,Chill / °C,HIndex / °C,Humid%,Dewpt / °C,Wind / ms¯¹,HiWind / ms¯¹,Winddir / °,Rain / mm,RainRate / mmhr¯¹,Pressure / hPa,InsideTemp / °C,InsideHumid%,Radiation / Wm¯²,UV
2016-01-30 00:00:00,8.2,5.4,8.2,74.0,3.9,4.9,10.7,225,0.0,0.0,992.9,23.6,32.0,0,0
2016-01-30 00:05:00,8.2,5.2,8.2,74.0,3.9,5.4,10.7,225,0.0,0.0,992.8,23.6,32.0,0,0
2016-01-30 00:10:00,8.2,5.6,8.2,74.0,3.9,4.5,8.9,225,0.0,0.0,992.8,23.6,32.0,0,0
2016-01-30 00:15:00,8.2,5.5,8.2,73.0,3.6,4.5,8.9,225,0.0,0.0,992.7,23.6,32.0,0,0
2016-01-30 00:20:00,8.2,5.3,8.2,73.0,3.6,4.9,10.3,225,0.0,0.0,992.8,23.6,32.0,0,0
2016-01-30 00:25:00,8.2,5.5,8.2,73.0,3.6,4.5,10.3,225,0.0,0.0,992.7,23.6,32.0,0,0
2016-01-30 00:30:00,8.2,5.3,8.2,72.0,3.4,4.9,9.8,225,0.0,0.0,992.8,23.6,32.0,0,0
2016-01-30 00:35:00,8.2,5.3,8.2,72.0,3.4,4.9,8.9,225,0.0,0.0,992.7,23.6,32.0,0,0
2016-01-30 00:40:00,8.2,5.7,8.2,72.0,3.4,4.0,8.9,225,0.0,0.0,992.8,23.6,32.0,0,0
2016-01-30 00:45:00,8.2,5.3,8.2,72.0,3.4,4.9,9.4,225,0.0,0.0,992.8,23.7,32.0,0,0
2016-01-30 00:50:00,8.2,5.3,8.2,72.0,3.4,4.9,13.0,225,0.0,0.0,992.8,23.6,32.0,0,0
2016-01-30 00:55:00,8.2,5.4,8.2,71.0,3.3,4.9,10.7,225,0.0,0.0,992.5,23.7,32.0,0,0
2016-01-30 01:00:00,8.3,5.7,8.3,71.0,3.3,4.5,11.2,225,0.0,0.0,992.7,23.7,32.0,0,0
2016-01-30 01:05:00,8.3,5.3,8.3,70.0,3.1,5.4,16.1,225,0.0,0.0,992.7,23.7,32.0,0,0
2016-01-30 01:10:00,8.3,5.7,8.3,70.0,3.2,4.5,11.2,225,0.0,0.0,992.6,23.6,32.0,0,0
2016-01-30 01:15:00,8.3,5.7,8.3,70.0,3.2,4.5,9.4,225,0.0,0.0,992.6,23.6,32.0,0,0
2016-01-30 01:20:00,8.3,5.5,8.3,69.0,3.0,4.9,11.6,225,0.0,0.0,992.7,23.6,31.0,0,0
2016-01-30 01:25:00,8.3,5.5,8.3,70.0,3.2,4.9,10.3,225,0.0,0.0,992.6,23.6,31.0,0,0
2016-01-30 01:30:00,8.3,5.1,8.3,70.0,3.1,5.8,13.0,225,0.0,0.0,992.4,23.6,31.0,0,0
2016-01-30 01:35:00,8.3,5.3,8.3,70.0,3.1,5.4,12.5,225,0.0,0.0,992.3,23.6,31.0,0,0
2016-01-30 01:40:00,8.2,5.7,8.2,70.0,3.0,4.0,9.8,225,0.0,0.0,992.5,23.6,31.0,0,0
2016-01-30 01:45:00,8.1,5.1,8.1,70.0,3.0,5.4,11.6,225,0.0,0.0,992.4,23.5,31.0,0,0
2016-01-30 01:50:00,8.1,5.2,8.1,70.0,2.9,4.9,9.8,225,0.0,0.0,992.5,23.5,31.0,0,0
2016-01-30 01:55:00,8.1,4.8,8.1,71.0,3.1,5.8,13.0,225,0.0,0.0,992.5,23.5,31.0,0,0
2016-01-30 02:00:00,8.1,5.4,8.1,72.0,3.3,4.5,9.4,225,0.0,0.0,993.1,23.5,31.0,0,0
2016-01-30 02:05:00,7.6,4.5,7.6,73.0,3.1,5.4,10.7,247.5,0.1,0.0,993.1,23.5,31.0,0,0
2016-01-30 02:10:00,7.0,3.9,7.0,75.0,2.9,4.9,10.7,225,0.0,0.0,993.2,23.5,31.0,0,0
2016-01-30 02:15:00,6.6,3.4,6.6,77.0,2.9,4.9,11.6,225,0.0,0.0,993.1,23.4,31.0,0,0
2016-01-30 02:20:00,6.3,3.2,6.3,78.0,2.7,4.5,13.0,225,0.0,0.0,993.1,23.4,31.0,0,0
2016-01-30 02:25:00,6.1,2.5,6.1,78.0,2.5,5.4,12.1,247.5,0.0,0.0,993.1,23.3,31.0,0,0
2016-01-30 02:30:00,6.0,3.1,6.0,79.0,2.6,4.0,9.4,270,0.0,0.0,993.1,23.3,31.0,0,0
2016-01-30 02:35:00,6.0,3.6,6.0,80.0,2.8,3.1,7.2,292.5,0.0,0.0,993.4,23.2,31.0,0,0
2016-01-30 02:40:00,5.9,2.8,5.9,80.0,2.8,4.5,11.6,270,0.0,0.0,993.6,23.2,31.0,0,0
2016-01-30 02:45:00,5.8,2.9,5.8,80.0,2.7,4.0,12.1,270,0.0,0.0,993.7,23.2,31.0,0,0
2016-01-30 02:50:00,5.6,2.6,5.6,79.0,2.3,4.0,8.0,292.5,0.0,0.0,993.7,23.1,31.0,0,0
2016-01-30 02:55:00,5.4,2.7,5.4,79.0,2.1,3.6,9.4,292.5,0.0,0.0,993.7,23.1,31.0,0,0
2016-01-30 03:00:00,5.2,2.7,5.2,79.0,1.9,3.1,6.3,315,0.0,0.0,993.7,23.1,31.0,0,0
2016-01-30 03:05:00,5.1,2.8,5.1,79.0,1.7,2.7,8.5,315,0.0,0.0,993.6,23.1,31.0,0,0
2016-01-30 03:10:00,5.0,2.7,5.0,80.0,1.8,2.7,5.8,247.5,0.0,0.0,993.5,23.1,31.0,0,0
2016-01-30 03:15:00,4.9,3.1,4.9,80.0,1.8,2.2,6.7,225,0.0,0.0,993.3,22.9,31.0,0,0
2016-01-30 03:20:00,4.9,3.5,4.9,80.0,1.7,1.8,4.9,225,0.0,0.0,993.1,22.9,31.0,0,0
2016-01-30 03:25:00,4.8,3.4,4.8,80.0,1.7,1.8,3.6,247.5,0.0,0.0,993.3,22.9,31.0,0,0
2016-01-30 03:30:00,4.8,4.8,4.8,80.0,1.6,1.3,4.9,247.5,0.0,0.0,993.1,22.9,31.0,0,0
2016-01-30 03:35:00,4.7,4.7,4.7,80.0,1.6,0.9,3.1,202.5,0.0,0.0,993.3,22.9,31.0,0,0
2016-01-30 03:40:00,4.7,4.7,4.7,81.0,1.7,1.3,4.5,202.5,0.0,0.0,993.3,22.9,31.0,0,0
2016-01-30 03:45:00,4.7,4.7,4.7,80.0,1.5,0.9,3.6,225,0.0,0.0,993.2,22.9,31.0,0,0
2016-01-30 03:50:00,4.6,3.1,4.6,80.0,1.5,1.8,5.4,225,0.0,0.0,993.2,22.9,31.0,0,0
2016-01-30 03:55:00,4.6,4.6,4.6,80.0,1.4,1.3,4.0,202.5,0.0,0.0,993.2,22.9,32.0,0,0
2016-01-30 04:00:00,4.6,4.6,4.6,80.0,1.4,1.3,3.6,202.5,0.0,0.0,993.2,22.9,31.0,0,0
2016-01-30 04:05:00,4.5,2.5,4.5,80.0,1.4,2.2,4.0,202.5,0.0,0.0,993.1,22.9,31.0,0,0
2016-01-30 04:10:00,4.5,2.2,4.5,80.0,1.4,2.7,4.9,202.5,0.0,0.0,993.1,23.1,32.0,0,0
2016-01-30 04:15:00,4.5,2.2,4.5,80.0,1.4,2.7,5.4,202.5,0.0,0.0,993.1,23.1,32.0,0,0
2016-01-30 04:20:00,4.6,2.2,4.6,80.0,1.4,2.7,6.7,202.5,0.0,0.0,993.0,23.1,32.0,0,0
2016-01-30 04:25:00,4.6,2.2,4.6,80.0,1.4,2.7,8.5,225,0.0,0.0,993.1,23.1,31.0,0,0
2016-01-30 04:30:00,4.6,2.6,4.6,80.0,1.4,2.2,5.8,202.5,0.0,0.0,993.0,23.1,31.0,0,0
2016-01-30 04:35:00,4.6,2.7,4.6,80.0,1.5,2.2,4.9,270,0.0,0.0,993.0,23.1,31.0,0,0
2016-01-30 04:40:00,4.6,2.3,4.6,80.0,1.5,2.7,4.9,225,0.0,0.0,992.9,23.1,31.0,0,0
2016-01-30 04:45:00,4.6,2.7,4.6,81.0,1.6,2.2,5.4,202.5,0.0,0.0,992.9,23.1,31.0,0,0
2016-01-30 04:50:00,4.6,2.3,4.6,82.0,1.8,2.7,6.3,225,0.0,0.0,992.9,22.9,31.0,0,0
2016-01-30 04:55:00,4.6,2.3,4.6,82.0,1.8,2.7,7.2,225,0.0,0.0,992.7,22.9,31.0,0,0
2016-01-30 05:00:00,4.6,2.3,4.6,82.0,1.8,2.7,8.5,225,0.0,0.0,992.8,22.9,31.0,0,0
2016-01-30 05:05:00,4.6,1.9,4.6,83.0,2.0,3.1,6.3,247.5,0.0,0.0,992.8,22.9,31.0,0,0
2016-01-30 05:10:00,4.6,1.9,4.6,83.0,2.0,3.1,9.4,225,0.0,0.0,992.7,22.9,31.0,0,0
2016-01-30 05:15:00,4.6,1.9,4.6,82.0,1.8,3.1,10.7,292.5,0.0,0.0,993.0,22.9,31.0,0,0
2016-01-30 05:20:00,4.5,1.8,4.5,82.0,1.7,3.1,8.9,247.5,0.0,0.0,993.0,22.9,31.0,0,0
2016-01-30 05:25:00,4.5,1.2,4.5,81.0,1.5,4.0,10.3,270,0.0,0.0,993.1,22.8,31.0,0,0
2016-01-30 05:30:00,4.4,0.2,4.4,79.0,1.1,5.8,11.6,247.5,0.1,0.0,993.2,22.8,31.0,0,0
2016-01-30 05:35:00,4.4,1.4,4.4,77.0,0.7,3.6,8.5,225,0.0,0.0,993.1,22.8,31.0,0,0
2016-01-30 05:40:00,4.3,1.0,4.3,75.0,0.3,4.0,9.4,247.5,0.0,0.0,992.9,22.8,31.0,0,0
2016-01-30 05:45:00,4.3,1.3,4.3,75.0,0.3,3.6,9.8,225,0.0,0.0,993.0,22.8,30.0,0,0
2016-01-30 05:50:00,4.4,1.7,4.4,74.0,0.2,3.1,10.7,225,0.0,0.0,992.9,22.8,30.0,0,0
2016-01-30 05:55:00,4.4,1.4,4.4,73.0,0.0,3.6,7.2,225,0.0,0.0,992.9,22.7,30.0,0,0
2016-01-30 06:00:00,4.4,1.7,4.4,73.0,0.0,3.1,8.9,247.5,0.0,0.0,992.9,22.7,30.0,0,0
2016-01-30 06:05:00,4.5,1.8,4.5,73.0,0.1,3.1,7.2,270,0.0,0.0,993.1,22.7,30.0,0,0
2016-01-30 06:10:00,4.5,1.5,4.5,72.0,-0.1,3.6,9.4,270,0.0,0.0,993.2,22.6,30.0,0,0
2016-01-30 06:15:00,4.6,1.6,4.6,72.0,-0.1,3.6,8.5,270,0.0,0.0,993.1,22.6,30.0,0,0
2016-01-30 06:20:00,4.6,1.3,4.6,71.0,-0.2,4.0,9.8,270,0.0,0.0,993.2,22.4,30.0,0,0
2016-01-30 06:25:00,4.5,1.2,4.5,69.0,-0.7,4.0,9.4,270,0.0,0.0,993.3,22.4,29.0,0,0
2016-01-30 06:30:00,4.6,1.1,4.6,68.0,-0.8,4.5,8.9,270,0.0,0.0,993.5,22.4,29.0,0,0
2016-01-30 06:35:00,4.6,1.6,4.6,68.0,-0.8,3.6,11.6,247.5,0.0,0.0,993.7,22.3,29.0,0,0
2016-01-30 06:40:00,4.6,2.2,4.6,67.0,-1.0,2.7,6.7,292.5,0.0,0.0,993.6,22.3,29.0,0,0
2016-01-30 06:45:00,4.6,2.6,4.6,68.0,-0.8,2.2,6.3,225,0.0,0.0,993.6,22.2,28.0,0,0
2016-01-30 06:50:00,4.5,2.2,4.5,68.0,-0.9,2.7,6.3,247.5,0.0,0.0,993.6,22.2,28.0,0,0
2016-01-30 06:55:00,4.4,2.5,4.4,67.0,-1.1,2.2,5.8,292.5,0.0,0.0,993.8,22.1,28.0,0,0
2016-01-30 07:00:00,4.4,2.5,4.4,67.0,-1.1,2.2,5.4,247.5,0.0,0.0,993.7,22.0,28.0,0,0
2016-01-30 07:05:00,4.4,1.7,4.4,67.0,-1.2,3.1,9.8,225,0.0,0.0,993.8,22.0,28.0,0,0
2016-01-30 07:10:00,4.4,1.7,4.4,67.0,-1.2,3.1,9.8,225,0.0,0.0,993.7,21.9,28.0,0,0
2016-01-30 07:15:00,4.4,2.9,4.4,67.0,-1.2,1.8,3.6,225,0.0,0.0,993.7,21.9,28.0,0,0
2016-01-30 07:20:00,4.4,2.0,4.4,67.0,-1.2,2.7,6.3,202.5,0.0,0.0,993.7,21.8,28.0,0,0
2016-01-30 07:25:00,4.4,2.0,4.4,67.0,-1.2,2.7,5.8,225,0.0,0.0,993.7,21.8,28.0,0,0
2016-01-30 07:30:00,4.3,1.6,4.3,67.0,-1.2,3.1,6.7,225,0.0,0.0,993.8,21.8,28.0,0,0
2016-01-30 07:35:00,4.3,2.8,4.3,68.0,-1.0,1.8,5.4,202.5,0.0,0.0,993.8,21.7,28.0,0,0
2016-01-30 07:40:00,4.3,2.4,4.3,68.0,-1.0,2.2,5.4,202.5,0.0,0.0,993.9,21.7,28.0,0,0
2016-01-30 07:45:00,4.3,2.3,4.3,68.0,-1.1,2.2,5.8,225,0.0,0.0,993.9,21.6,28.0,0,0
2016-01-30 07:50:00,4.3,1.0,4.3,68.0,-1.1,4.0,9.8,247.5,0.0,0.0,993.8,21.6,28.0,0,0
2016-01-30 07:55:00,4.3,1.5,4.3,68.0,-1.1,3.1,8.9,225,0.0,0.0,993.9,21.6,27.0,0,0
2016-01-30 08:00:00,4.3,1.5,4.3,68.0,-1.1,3.1,8.9,247.5,0.0,0.0,994.0,21.5,28.0,0,0
2016-01-30 08:05:00,4.3,1.3,4.3,68.0,-1.0,3.6,10.7,247.5,0.0,0.0,993.8,21.5,28.0,0,0
2016-01-30 08:10:00,4.3,1.3,4.3,68.0,-1.0,3.6,8.9,292.5,0.0,0.0,994.1,21.4,27.0,0,0
2016-01-30 08:15:00,4.3,1.3,4.3,69.0,-0.8,3.6,8.0,270,0.0,0.0,994.3,21.4,27.0,3,0
2016-01-30 08:20:00,4.3,2.0,4.3,69.0,-0.8,2.7,8.0,292.5,0.0,0.0,994.3,21.4,27.0,7,0
2016-01-30 08:25:00,4.4,2.0,4.4,69.0,-0.8,2.7,8.9,225,0.0,0.0,994.4,21.4,27.0,11,0
2016-01-30 08:30:00,4.4,2.0,4.4,69.0,-0.8,2.7,8.5,247.5,0.0,0.0,994.4,21.3,27.0,14,0
2016-01-30 08:35:00,4.4,1.4,4.4,69.0,-0.8,3.6,7.2,225,0.0,0.0,994.5,21.3,28.0,16,0
2016-01-30 08:40:00,4.4,1.7,4.4,69.0,-0.8,3.1,8.9,247.5,0.0,0.0,994.6,21.3,28.0,16,0
2016-01-30 08:45:00,4.4,2.1,4.4,69.0,-0.7,2.7,6.7,270,0.0,0.0,994.6,21.3,28.0,16,0
2016-01-30 08:50:00,4.4,1.7,4.4,69.0,-0.8,3.1,6.3,270,0.0,0.0,994.5,21.3,27.0,17,0
2016-01-30 08:55:00,4.4,1.7,4.4,69.0,-0.8,3.1,8.0,247.5,0.0,0.0,994.5,21.3,27.0,19,0
2016-01-30 09:00:00,4.4,1.4,4.4,69.0,-0.8,3.6,7.2,225,0.0,0.0,994.4,21.3,27.0,21,0
2016-01-30 09:05:00,4.3,1.0,4.3,68.0,-1.0,4.0,8.0,247.5,0.0,0.0,994.5,21.3,27.0,29,0
2016-01-30 09:10:00,4.4,1.7,4.4,67.0,-1.2,3.1,7.2,202.5,0.0,0.0,994.5,21.3,27.0,52,0.1
2016-01-30 09:15:00,4.4,1.2,4.4,67.0,-1.1,4.0,8.9,247.5,0.0,0.0,994.5,21.3,27.0,52,0.1
2016-01-30 09:20:00,4.4,1.2,4.4,67.0,-1.1,4.0,8.9,247.5,0.0,0.0,994.6,21.3,27.0,36,0
2016-01-30 09:25:00,4.4,2.4,4.4,67.0,-1.2,2.2,6.7,225,0.0,0.0,994.6,21.3,27.0,31,0
2016-01-30 09:30:00,4.4,1.4,4.4,67.0,-1.2,3.6,9.8,225,0.0,0.0,994.7,21.3,27.0,35,0
2016-01-30 09:35:00,4.4,1.7,4.4,67.0,-1.2,3.1,7.2,247.5,0.0,0.0,994.7,21.3,27.0,36,0
2016-01-30 09:40:00,4.4,1.7,4.4,66.0,-1.3,3.1,8.0,225,0.0,0.0,994.6,21.3,27.0,43,0
2016-01-30 09:45:00,4.5,1.8,4.5,66.0,-1.3,3.1,9.4,225,0.0,0.0,994.5,21.3,27.0,72,0.5
2016-01-30 09:50:00,4.6,1.9,4.6,66.0,-1.2,3.1,8.0,270,0.0,0.0,994.6,21.3,27.0,80,0.6
2016-01-30 09:55:00,4.6,1.4,4.6,67.0,-1.0,4.0,9.8,247.5,0.0,0.0,994.6,21.3,27.0,69,0.6
2016-01-30 10:00:00,4.4,0.9,4.4,68.0,-0.9,4.5,10.7,247.5,0.0,0.0,994.5,21.3,27.0,73,0.5
2016-01-30 10:05:00,4.3,1.3,4.3,70.0,-0.7,3.6,9.8,270,0.0,0.0,994.5,21.3,27.0,55,0.3
2016-01-30 10:10:00,4.2,1.8,4.2,70.0,-0.8,2.7,5.8,225,0.0,0.0,994.2,21.3,27.0,53,0
2016-01-30 10:15:00,4.2,1.2,4.2,70.0,-0.8,3.6,8.9,247.5,0.0,0.0,994.2,21.3,27.0,73,0.5
2016-01-30 10:20:00,4.5,2.5,4.5,69.0,-0.7,2.2,5.8,202.5,0.0,0.0,994.2,21.3,27.0,116,0.7
2016-01-30 10:25:00,4.9,1.7,4.9,67.0,-0.7,4.0,11.2,225,0.0,0.0,994.0,21.3,27.0,171,0.8
2016-01-30 10:30:00,5.3,2.8,5.3,66.0,-0.5,3.1,9.4,225,0.0,0.0,994.0,21.4,27.0,223,0.9
2016-01-30 10:35:00,5.5,2.0,5.5,64.0,-0.8,4.9,11.2,247.5,0.0,0.0,994.0,21.4,27.0,204,0.9
2016-01-30 10:40:00,5.6,2.4,5.6,63.0,-0.9,4.5,11.2,270,0.0,0.0,994.0,21.4,27.0,207,0.9
2016-01-30 10:45:00,5.6,2.1,5.6,63.0,-0.9,4.9,13.0,270,0.0,0.0,994.1,21.4,27.0,131,0.8
2016-01-30 10:50:00,5.4,1.9,5.4,65.0,-0.7,4.9,9.8,270,0.0,0.0,994.3,21.4,27.0,65,0.4
2016-01-30 10:55:00,4.7,1.5,4.7,71.0,-0.1,4.0,9.4,270,0.0,0.0,994.2,21.4,27.0,229,0.9
2016-01-30 11:00:00,4.4,1.4,4.4,73.0,0.0,3.6,8.0,292.5,0.0,0.0,994.6,21.4,27.0,58,0.2
2016-01-30 11:05:00,4.1,0.4,4.1,76.0,0.2,4.5,9.8,247.5,0.0,0.0,994.4,21.4,27.0,61,0.6
2016-01-30 11:10:00,3.9,1.9,3.9,78.0,0.5,2.2,6.3,202.5,0.0,0.0,994.2,21.4,27.0,240,0.8
2016-01-30 11:15:00,3.9,-0.0,3.9,78.0,0.4,4.9,11.6,225,0.0,0.0,994.2,21.4,27.0,53,0.4
2016-01-30 11:20:00,4.1,0.8,4.1,77.0,0.4,4.0,11.6,270,0.0,0.0,994.3,21.4,27.0,190,0.9
2016-01-30 11:25:00,4.1,0.8,4.1,76.0,0.3,4.0,8.5,225,0.0,0.0,994.3,21.4,27.0,77,0.7
2016-01-30 11:30:00,4.0,0.9,4.0,77.0,0.3,3.6,10.3,247.5,0.0,0.0,994.2,21.4,27.0,116,0.9
2016-01-30 11:35:00,4.3,2.4,4.3,77.0,0.7,2.2,7.2,292.5,0.0,0.0,994.1,21.4,27.0,290,1.1
2016-01-30 11:40:00,4.8,2.9,4.8,74.0,0.6,2.2,7.2,315,0.0,0.0,994.0,21.4,27.0,263,1.1
2016-01-30 11:45:00,5.1,2.5,5.1,72.0,0.4,3.1,9.4,180,0.0,0.0,993.8,21.4,27.0,145,0.9
2016-01-30 11:50:00,5.0,2.4,5.0,70.0,-0.0,3.1,7.2,247.5,0.0,0.0,993.8,21.4,27.0,168,0.9
2016-01-30 11:55:00,5.3,2.8,5.3,69.0,0.1,3.1,8.0,270,0.0,0.0,993.6,21.4,27.0,292,1.2
2016-01-30 12:00:00,5.6,2.5,5.6,67.0,-0.1,4.0,11.2,225,0.0,0.0,993.6,21.4,27.0,294,1.2
2016-01-30 12:05:00,5.8,3.4,5.8,66.0,-0.1,3.1,10.7,270,0.0,0.0,993.5,21.4,27.0,300,1.2
2016-01-30 12:10:00,5.9,3.0,5.9,66.0,0.1,4.0,8.5,225,0.0,0.0,993.8,21.4,27.0,381,1.2
2016-01-30 12:15:00,5.8,2.6,5.8,67.0,0.1,4.5,11.6,225,0.0,0.0,994.2,21.5,27.0,322,1.1
2016-01-30 12:20:00,5.9,3.6,5.9,69.0,0.7,3.1,8.0,225,0.0,0.0,993.9,21.6,27.0,454,1.3
2016-01-30 12:25:00,6.1,3.7,6.1,69.0,0.8,3.1,9.8,315,0.0,0.0,994.0,21.7,27.0,297,1.1
2016-01-30 12:30:00,5.8,3.7,5.8,68.0,0.4,2.7,7.2,270,0.0,0.0,994.0,21.7,27.0,80,0.7
2016-01-30 12:35:00,5.6,1.9,5.6,67.0,-0.0,5.4,14.3,270,0.0,0.0,994.4,21.7,27.0,62,0.2
2016-01-30 12:40:00,5.3,2.0,5.3,70.0,0.3,4.5,12.5,247.5,0.0,0.0,994.7,21.7,27.0,275,1
2016-01-30 12:45:00,5.4,2.3,5.4,70.0,0.4,4.0,10.7,247.5,0.0,0.0,994.4,21.7,27.0,328,1.2
2016-01-30 12:50:00,5.6,3.4,5.6,69.0,0.3,2.7,7.2,225,0.0,0.0,994.4,21.7,27.0,311,1.2
2016-01-30 12:55:00,5.7,3.3,5.7,69.0,0.5,3.1,8.0,247.5,0.0,0.0,994.5,21.7,27.0,319,1.2
2016-01-30 13:00:00,5.8,2.6,5.8,67.0,0.1,4.5,8.5,247.5,0.0,0.0,994.7,21.8,27.0,224,1.1
2016-01-30 13:05:00,5.9,3.3,5.9,66.0,0.1,3.6,11.6,202.5,0.0,0.0,994.7,21.9,27.0,405,1.2
2016-01-30 13:10:00,6.2,4.1,6.2,66.0,0.3,2.7,9.8,247.5,0.0,0.0,994.4,21.9,27.0,445,1.2
2016-01-30 13:15:00,6.6,4.3,6.6,65.0,0.5,3.1,9.8,225,0.0,0.0,994.4,22.0,27.0,419,1.2
2016-01-30 13:20:00,6.6,4.4,6.6,64.0,0.3,3.1,8.5,225,0.0,0.0,994.4,22.1,27.0,322,1.1
2016-01-30 13:25:00,6.3,3.7,6.3,62.0,-0.4,3.6,9.4,270,0.0,0.0,994.3,22.2,27.0,329,1.1
2016-01-30 13:30:00,6.4,4.1,6.4,63.0,-0.1,3.1,7.2,270,0.0,0.0,994.4,22.2,26.0,306,1.1
2016-01-30 13:35:00,6.2,3.6,6.2,63.0,-0.3,3.6,10.3,225,0.0,0.0,994.5,22.3,26.0,292,1
2016-01-30 13:40:00,6.2,4.6,6.2,63.0,-0.3,2.2,7.2,292.5,0.0,0.0,994.4,22.3,26.0,83,0.8
2016-01-30 13:45:00,6.1,3.4,6.1,64.0,-0.2,3.6,10.3,225,0.0,0.0,994.5,22.2,26.0,44,0.2
2016-01-30 13:50:00,5.3,1.5,5.3,67.0,-0.3,5.4,13.9,247.5,0.0,0.0,994.7,22.1,26.0,42,0
2016-01-30 13:55:00,4.1,0.0,4.1,73.0,-0.3,5.4,12.1,270,0.0,0.0,994.5,22.0,26.0,62,0
2016-01-30 14:00:00,3.6,0.1,3.6,77.0,-0.0,4.0,8.5,247.5,0.1,0.0,994.5,22.0,26.0,38,0
2016-01-30 14:05:00,3.4,-0.6,3.4,79.0,0.1,4.9,8.5,270,0.1,0.6,994.8,21.9,27.0,15,0
2016-01-30 14:10:00,3.3,-0.5,3.3,80.0,0.2,4.5,10.3,270,0.0,0.6,995.1,21.8,27.0,15,0
2016-01-30 14:15:00,2.8,-2.0,2.8,80.0,-0.3,6.3,11.2,292.5,0.0,0.6,995.3,21.8,27.0,9,0
2016-01-30 14:20:00,2.2,-1.6,2.2,82.0,-0.6,4.0,10.3,315,0.0,0.4,995.3,21.7,27.0,10,0
2016-01-30 14:25:00,1.7,-1.9,1.7,83.0,-0.9,3.6,7.2,315,0.0,0.0,995.1,21.6,27.0,26,0
2016-01-30 14:30:00,1.7,-1.9,1.7,85.0,-0.5,3.6,8.9,315,0.0,0.0,995.0,21.5,27.0,164,0.7
2016-01-30 14:35:00,2.1,-0.7,2.1,86.0,0.0,2.7,6.3,270,0.1,0.0,995.0,21.5,28.0,231,1.1
2016-01-30 14:40:00,2.5,2.5,2.5,86.0,0.4,1.3,4.0,292.5,0.1,1.0,994.9,21.5,28.0,185,1.1
2016-01-30 14:45:00,2.8,2.8,2.8,85.0,0.6,1.3,3.6,247.5,0.0,0.8,995.0,21.5,28.0,180,0.9
2016-01-30 14:50:00,3.1,3.1,3.1,85.0,0.8,0.9,3.1,180,0.1,0.8,994.7,21.5,28.0,185,1
2016-01-30 14:55:00,3.2,3.2,3.2,83.0,0.6,1.3,4.5,292.5,0.0,0.6,994.8,21.5,28.0,53,0.5
2016-01-30 15:00:00,3.3,1.2,3.3,83.0,0.7,2.2,8.0,225,0.0,0.4,994.7,21.4,28.0,24,0
2016-01-30 15:05:00,3.6,1.0,3.6,82.0,0.8,2.7,6.7,202.5,0.0,0.0,994.7,21.4,28.0,25,0
2016-01-30 15:10:00,3.8,0.3,3.8,80.0,0.6,4.0,9.4,202.5,0.0,0.0,994.7,21.3,28.0,21,0
2016-01-30 15:15:00,3.8,0.3,3.8,79.0,0.5,4.0,10.7,225,0.0,0.0,994.9,21.3,28.0,9,0
2016-01-30 15:20:00,3.6,-0.2,3.6,79.0,0.3,4.5,10.3,225,0.1,0.0,995.3,21.2,28.0,0,0
2016-01-30 15:25:00,3.2,-0.1,3.2,80.0,0.1,3.6,8.5,270,0.0,0.0,995.6,21.2,28.0,0,0
2016-01-30 15:30:00,2.7,0.4,2.7,81.0,-0.3,2.2,9.4,202.5,0.1,0.6,995.2,21.2,28.0,9,0
2016-01-30 15:35:00,2.4,-1.0,2.4,82.0,-0.3,3.6,8.9,270,0.0,0.6,995.0,21.2,28.0,10,0
2016-01-30 15:40:00,2.4,-1.0,2.4,82.0,-0.3,3.6,8.5,225,0.0,0.4,995.0,21.1,28.0,18,0
2016-01-30 15:45:00,2.6,-0.1,2.6,82.0,-0.1,2.7,5.8,225,0.0,0.0,995.1,21.1,28.0,17,0
2016-01-30 15:50:00,2.7,-0.3,2.7,81.0,-0.2,3.1,6.7,270,0.0,0.0,995.2,20.9,28.0,3,0
2016-01-30 15:55:00,2.7,-0.7,2.7,82.0,-0.1,3.6,10.7,225,0.1,0.0,995.0,20.9,28.0,4,0
2016-01-30 16:00:00,2.5,-0.6,2.5,83.0,-0.1,3.1,8.0,247.5,0.0,0.0,994.9,20.9,28.0,11,0
2016-01-30 16:05:00,2.3,-0.8,2.3,84.0,-0.1,3.1,8.0,247.5,0.0,0.0,994.9,20.9,29.0,11,0
2016-01-30 16:10:00,2.4,-0.4,2.4,85.0,0.1,2.7,6.3,270,0.0,0.0,994.9,20.9,29.0,11,0
2016-01-30 16:15:00,2.5,0.7,2.5,85.0,0.2,1.8,4.9,292.5,0.0,0.0,995.0,20.9,29.0,11,0
2016-01-30 16:20:00,2.6,-0.1,2.6,85.0,0.3,2.7,5.4,225,0.0,0.0,995.1,20.8,29.0,11,0
2016-01-30 16:25:00,2.7,-0.0,2.7,84.0,0.2,2.7,6.3,225,0.0,0.0,995.0,20.8,29.0,8,0
2016-01-30 16:30:00,2.7,0.5,2.7,84.0,0.3,2.2,7.2,202.5,0.0,0.0,994.9,20.8,29.0,6,0
2016-01-30 16:35:00,2.8,0.1,2.8,84.0,0.3,2.7,8.0,202.5,0.0,0.0,994.9,20.8,29.0,2,0
2016-01-30 16:40:00,2.9,0.7,2.9,84.0,0.5,2.2,5.4,270,0.0,0.0,995.2,20.8,29.0,0,0
2016-01-30 16:45:00,3.0,0.4,3.0,83.0,0.4,2.7,5.4,225,0.0,0.0,995.2,20.8,29.0,0,0
2016-01-30 16:50:00,3.1,0.5,3.1,83.0,0.5,2.7,7.2,225,0.0,0.0,995.3,20.7,29.0,0,0
2016-01-30 16:55:00,3.3,1.6,3.3,82.0,0.5,1.8,3.6,292.5,0.0,0.0,995.3,20.7,29.0,0,0
2016-01-30 17:00:00,3.4,1.2,3.4,82.0,0.6,2.2,5.8,225,0.0,0.0,995.3,20.7,29.0,0,0
2016-01-30 17:05:00,3.4,1.8,3.4,82.0,0.7,1.8,4.9,202.5,0.0,0.0,995.2,20.7,29.0,0,0
2016-01-30 17:10:00,3.4,1.7,3.4,82.0,0.6,1.8,4.9,225,0.0,0.0,995.1,20.7,29.0,0,0
2016-01-30 17:15:00,3.4,1.7,3.4,81.0,0.4,1.8,4.9,270,0.0,0.0,995.0,20.7,29.0,0,0
2016-01-30 17:20:00,3.4,0.9,3.4,80.0,0.3,2.7,8.0,225,0.0,0.0,994.8,20.7,29.0,0,0
2016-01-30 17:25:00,3.5,1.0,3.5,79.0,0.2,2.7,7.2,202.5,0.0,0.0,994.7,20.6,29.0,0,0
2016-01-30 17:30:00,3.6,1.0,3.6,78.0,0.1,2.7,5.4,270,0.0,0.0,994.5,20.6,29.0,0,0
2016-01-30 17:35:00,3.6,0.7,3.6,77.0,-0.0,3.1,6.3,225,0.0,0.0,994.7,20.6,29.0,0,0
2016-01-30 17:40:00,3.7,0.6,3.7,75.0,-0.3,3.6,8.0,247.5,0.0,0.0,994.9,20.6,29.0,0,0
2016-01-30 17:45:00,3.8,0.9,3.8,74.0,-0.4,3.1,8.0,225,0.0,0.0,994.8,20.7,29.0,0,0
2016-01-30 17:50:00,3.8,1.4,3.8,74.0,-0.4,2.7,7.2,225,0.0,0.0,994.9,20.7,29.0,0,0
2016-01-30 17:55:00,3.8,1.0,3.8,73.0,-0.6,3.1,8.0,225,0.0,0.0,994.9,20.7,29.0,0,0
2016-01-30 18:00:00,3.8,1.4,3.8,74.0,-0.4,2.7,7.2,225,0.0,0.0,994.8,20.8,29.0,0,0
2016-01-30 18:05:00,3.8,0.9,3.8,75.0,-0.2,3.1,9.4,202.5,0.0,0.0,994.8,20.8,29.0,0,0
2016-01-30 18:10:00,3.7,1.6,3.7,75.0,-0.3,2.2,5.8,247.5,0.0,0.0,995.1,20.8,29.0,0,0
2016-01-30 18:15:00,3.4,0.5,3.4,77.0,-0.2,3.1,6.3,225,0.0,0.0,994.9,20.8,29.0,0,0
2016-01-30 18:20:00,3.3,0.3,3.3,77.0,-0.4,3.1,8.9,225,0.0,0.0,995.0,20.8,29.0,0,0
2016-01-30 18:25:00,3.2,-0.3,3.2,78.0,-0.2,4.0,8.5,225,0.0,0.0,995.0,20.9,29.0,0,0
2016-01-30 18:30:00,3.2,-0.1,3.2,78.0,-0.3,3.6,10.7,225,0.0,0.0,994.9,20.9,29.0,0,0
2016-01-30 18:35:00,3.2,0.2,3.2,78.0,-0.3,3.1,7.2,247.5,0.0,0.0,994.9,20.9,29.0,0,0
2016-01-30 18:40:00,3.2,-0.3,3.2,77.0,-0.4,4.0,8.5,247.5,0.0,0.0,995.1,20.9,29.0,0,0
2016-01-30 18:45:00,3.3,-0.2,3.3,77.0,-0.3,4.0,12.1,247.5,0.0,0.0,994.8,20.9,29.0,0,0
2016-01-30 18:50:00,3.4,-0.1,3.4,76.0,-0.4,4.0,8.0,225,0.0,0.0,995.0,20.9,29.0,0,0
2016-01-30 18:55:00,3.5,0.0,3.5,76.0,-0.3,4.0,9.4,225,0.0,0.0,994.9,20.9,29.0,0,0
2016-01-30 19:00:00,3.5,0.3,3.5,76.0,-0.3,3.6,8.0,180,0.0,0.0,995.1,20.9,28.0,0,0
2016-01-30 19:05:00,3.5,0.3,3.5,75.0,-0.5,3.6,8.9,225,0.0,0.0,995.1,20.9,28.0,0,0
2016-01-30 19:10:00,3.6,0.4,3.6,75.0,-0.5,3.6,8.9,225,0.0,0.0,995.1,20.9,28.0,0,0
2016-01-30 19:15:00,3.6,0.1,3.6,74.0,-0.6,4.0,10.7,225,0.0,0.0,995.2,20.9,28.0,0,0
2016-01-30 19:20:00,3.7,0.2,3.7,74.0,-0.5,4.0,11.2,202.5,0.0,0.0,995.1,20.9,28.0,0,0
2016-01-30 19:25:00,3.7,0.8,3.7,74.0,-0.5,3.1,8.9,225,0.0,0.0,995.1,20.9,28.0,0,0
2016-01-30 19:30:00,3.7,1.2,3.7,74.0,-0.5,2.7,8.0,225,0.0,0.0,995.1,21.1,28.0,0,0
2016-01-30 19:35:00,3.7,0.5,3.7,74.0,-0.5,3.6,8.0,225,0.0,0.0,995.0,21.1,28.0,0,0
2016-01-30 19:40:00,3.7,0.5,3.7,73.0,-0.7,3.6,6.7,292.5,0.0,0.0,995.2,21.1,28.0,0,0
2016-01-30 19:45:00,3.8,0.3,3.8,73.0,-0.6,4.0,10.7,247.5,0.0,0.0,995.3,21.1,28.0,0,0
2016-01-30 19:50:00,3.8,0.2,3.8,72.0,-0.7,4.5,11.2,225,0.0,0.0,995.3,21.1,28.0,0,0
2016-01-30 19:55:00,3.9,0.8,3.9,72.0,-0.7,3.6,10.3,225,0.0,0.0,995.3,21.1,28.0,0,0
2016-01-30 20:00:00,3.9,0.5,3.9,72.0,-0.6,4.0,9.4,247.5,0.0,0.0,995.4,21.1,28.0,0,0
2016-01-30 20:05:00,3.9,1.1,3.9,72.0,-0.6,3.1,8.9,225,0.0,0.0,995.4,21.1,28.0,0,0
2016-01-30 20:10:00,3.9,1.1,3.9,72.0,-0.6,3.1,6.3,247.5,0.0,0.0,995.7,21.1,28.0,0,0
2016-01-30 20:15:00,3.9,1.4,3.9,73.0,-0.5,2.7,6.3,247.5,0.0,0.0,995.8,21.1,28.0,0,0
2016-01-30 20:20:00,3.9,1.1,3.9,73.0,-0.5,3.1,9.4,270,0.0,0.0,995.9,21.1,28.0,0,0
2016-01-30 20:25:00,3.9,0.5,3.9,73.0,-0.5,4.0,9.8,225,0.0,0.0,995.9,21.1,28.0,0,0
2016-01-30 20:30:00,3.9,0.5,3.9,72.0,-0.6,4.0,8.5,247.5,0.0,0.0,995.9,21.1,28.0,0,0
2016-01-30 20:35:00,3.9,0.8,3.9,72.0,-0.6,3.6,8.0,247.5,0.0,0.0,996.1,21.2,28.0,0,0
2016-01-30 20:40:00,3.9,1.1,3.9,71.0,-0.8,3.1,9.4,225,0.0,0.0,996.2,21.2,28.0,0,0
2016-01-30 20:45:00,4.0,0.6,4.0,71.0,-0.8,4.0,8.0,247.5,0.0,0.0,996.3,21.2,28.0,0,0
2016-01-30 20:50:00,4.0,1.6,4.0,71.0,-0.8,2.7,6.7,247.5,0.0,0.0,996.2,21.2,28.0,0,0
2016-01-30 20:55:00,3.9,1.1,3.9,71.0,-0.8,3.1,8.5,270,0.0,0.0,996.2,21.2,28.0,0,0
2016-01-30 21:00:00,3.9,1.5,3.9,71.0,-0.8,2.7,5.4,247.5,0.0,0.0,996.4,21.2,28.0,0,0
2016-01-30 21:05:00,3.9,1.5,3.9,72.0,-0.6,2.7,8.0,247.5,0.0,0.0,996.4,21.2,28.0,0,0
2016-01-30 21:10:00,4.0,1.2,4.0,72.0,-0.6,3.1,8.0,202.5,0.0,0.0,996.4,21.2,28.0,0,0
2016-01-30 21:15:00,4.0,1.2,4.0,71.0,-0.8,3.1,8.0,247.5,0.0,0.0,996.4,21.2,28.0,0,0
2016-01-30 21:20:00,4.0,2.0,4.0,72.0,-0.6,2.2,6.3,292.5,0.0,0.0,996.5,21.2,28.0,0,0
2016-01-30 21:25:00,4.0,1.6,4.0,72.0,-0.6,2.7,5.4,225,0.0,0.0,996.5,21.2,28.0,0,0
2016-01-30 21:30:00,4.0,1.6,4.0,76.0,0.2,2.7,5.8,225,0.0,0.0,996.4,21.2,28.0,0,0
2016-01-30 21:35:00,3.9,1.1,3.9,72.0,-0.6,3.1,6.3,225,0.0,0.0,996.4,21.2,28.0,0,0
2016-01-30 21:40:00,3.9,1.1,3.9,73.0,-0.5,3.1,9.4,270,0.0,0.0,996.4,21.2,28.0,0,0
2016-01-30 21:45:00,3.8,1.4,3.8,73.0,-0.6,2.7,6.7,225,0.0,0.0,996.5,21.2,28.0,0,0
2016-01-30 21:50:00,3.8,2.2,3.8,74.0,-0.4,1.8,4.0,292.5,0.0,0.0,996.8,21.2,28.0,0,0
2016-01-30 21:55:00,3.7,1.6,3.7,74.0,-0.5,2.2,5.4,247.5,0.0,0.0,996.9,21.2,28.0,0,0
2016-01-30 22:00:00,3.7,1.6,3.7,75.0,-0.3,2.2,4.5,247.5,0.0,0.0,996.8,21.2,28.0,0,0
2016-01-30 22:05:00,3.7,2.1,3.7,75.0,-0.3,1.8,5.4,270,0.0,0.0,996.7,21.2,28.0,0,0
2016-01-30 22:10:00,3.7,3.7,3.7,75.0,-0.3,1.3,5.4,337.5,0.0,0.0,996.5,21.2,28.0,0,0
2016-01-30 22:15:00,3.7,3.7,3.7,75.0,-0.3,1.3,4.5,270,0.0,0.0,996.5,21.2,28.0,0,0
2016-01-30 22:20:00,3.6,3.6,3.6,75.0,-0.4,0.9,4.5,247.5,0.0,0.0,996.6,21.3,28.0,0,0
2016-01-30 22:25:00,3.6,1.5,3.6,75.0,-0.4,2.2,4.5,270,0.0,0.0,996.6,21.3,28.0,0,0
2016-01-30 22:30:00,3.7,1.6,3.7,75.0,-0.3,2.2,5.4,247.5,0.0,0.0,996.6,21.3,28.0,0,0
2016-01-30 22:35:00,3.7,2.1,3.7,75.0,-0.3,1.8,4.9,247.5,0.0,0.0,996.5,21.3,28.0,0,0
2016-01-30 22:40:00,3.8,2.2,3.8,75.0,-0.2,1.8,5.4,270,0.0,0.0,996.5,21.3,28.0,0,0
2016-01-30 22:45:00,3.8,1.7,3.8,74.0,-0.4,2.2,5.4,247.5,0.0,0.0,996.6,21.3,28.0,0,0
2016-01-30 22:50:00,3.8,1.7,3.8,74.0,-0.4,2.2,5.8,270,0.0,0.0,996.7,21.3,28.0,0,0
2016-01-30 22:55:00,3.8,1.4,3.8,74.0,-0.4,2.7,6.7,247.5,0.0,0.0,996.7,21.3,28.0,0,0
2016-01-30 23:00:00,3.9,2.3,3.9,73.0,-0.5,1.8,8.0,225,0.0,0.0,996.6,21.3,28.0,0,0
2016-01-30 23:05:00,3.9,2.3,3.9,73.0,-0.5,1.8,4.9,202.5,0.0,0.0,996.6,21.3,28.0,0,0
2016-01-30 23:10:00,3.9,1.4,3.9,73.0,-0.5,2.7,6.3,225,0.0,0.0,996.7,21.3,28.0,0,0
2016-01-30 23:15:00,3.9,1.5,3.9,73.0,-0.5,2.7,4.9,202.5,0.0,0.0,996.8,21.4,28.0,0,0
2016-01-30 23:20:00,3.8,0.7,3.8,74.0,-0.4,3.6,10.7,225,0.0,0.0,996.7,21.4,28.0,0,0